FW3687 Weather Reports


time (UTC)temp
F
wind
direction
speed
knots
gust
knots
rain 1hr
in
rain 24hr
in
rain mn
in
humidity
%
barometer
mb
20260506015050 50 12 0.9 7.8 0.00 0.00 0.00 55 1010.8
20260506014551 50 11 1.7 9.6 0.00 0.00 0.00 55 1010.6
20260506014050 50 350 7.0 11.3 0.00 0.00 0.00 55 1010.6
20260506013550 50 312 4.3 11.3 0.00 0.00 0.00 55 1010.5
20260506013050 50 318 1.7 10.4 0.00 0.00 0.00 55 1010.1
20260506012050 51 17 0.0 9.6 0.00 0.00 0.00 55 1010.0
20260506011051 51 355 0.0 8.7 0.00 0.00 0.00 55 1010.1
20260506010550 51 38 0.0 7.8 0.00 0.00 0.00 55 1010.2
20260506010050 51 360 0.9 11.3 0.00 0.00 0.00 55 1010.0
20260506005550 51 94 1.7 9.6 0.00 0.00 0.00 54 1009.8
20260506005050 51 46 0.9 9.6 0.00 0.00 0.00 54 1010.0
20260506004550 51 355 0.9 7.0 0.00 0.00 0.00 54 1010.0
20260506004051 51 345 0.0 9.6 0.00 0.00 0.00 54 1009.9
20260506003550 51 17 4.3 9.6 0.00 0.00 0.00 54 1009.9
20260506003050 51 19 2.6 9.6 0.00 0.00 0.00 53 1010.1
20260506002550 52 330 3.5 7.8 0.00 0.00 0.00 53 1010.0
20260506002051 52 49 2.6 7.8 0.00 0.00 0.00 53 1009.8
20260506001550 52 46 0.9 11.3 0.00 0.00 0.00 53 1009.2
20260506000550 52 323 8.7 11.3 0.00 0.00 0.00 52 1009.6
20260506000050 52 15 2.6 10.4 0.00 0.00 0.00 52 1009.5
20260505235550 52 32 8.7 10.4 0.00 0.00 0.00 52 1009.5
20260505235050 52 67 2.6 5.2 0.00 0.00 0.00 52 1009.6
20260505234551 52 346 2.6 10.4 0.00 0.00 0.00 52 1009.6
20260505234050 52 355 0.9 13.9 0.00 0.00 0.00 53 1009.6
20260505233550 52 360 4.3 13.9 0.00 0.00 0.00 52 1009.4
20260505232550 52 13 0.9 8.7 0.00 0.00 0.00 52 1009.2
20260505232050 52 25 2.6 13.9 0.00 0.00 0.00 52 1009.4
20260505231550 52 346 13.0 13.9 0.00 0.00 0.00 52 1009.1
20260505231050 52 28 2.6 11.3 0.00 0.00 0.00 52 1009.3
20260505230550 53 22 3.5 13.9 0.00 0.00 0.00 52 1009.0
20260505230050 53 355 2.6 13.9 0.00 0.00 0.00 52 1008.9
20260505225550 53 279 3.5 10.4 0.00 0.00 0.00 52 1008.7
20260505225050 53 40 4.3 14.8 0.00 0.00 0.00 52 1008.8
20260505224551 53 5 0.9 8.7 0.00 0.00 0.00 52 1008.3
20260505224050 53 97 2.6 11.3 0.00 0.00 0.00 52 1008.3
20260505223050 53 103 7.8 10.4 0.00 0.00 0.00 51 1008.6
20260505222550 53 315 1.7 8.7 0.00 0.00 0.00 52 1008.1
20260505222050 53 355 2.6 9.6 0.00 0.00 0.00 52 1007.8
20260505221550 53 22 5.2 9.6 0.00 0.00 0.00 52 1007.8
20260505221050 53 301 6.1 12.2 0.00 0.00 0.00 52 1007.6
20260505220050 53 315 10.4 12.2 0.00 0.00 0.00 52 1008.0
20260505215550 54 130 1.7 15.6 0.00 0.00 0.00 52 1008.0
20260505215050 54 44 9.6 15.6 0.00 0.00 0.00 53 1007.9
20260505214551 54 360 2.6 13.0 0.00 0.00 0.00 52 1007.8
20260505214051 54 23 1.7 11.3 0.00 0.00 0.00 52 1007.7
20260505213550 54 313 3.5 8.7 0.00 0.00 0.00 52 1008.0
20260505213051 54 344 0.9 12.2 0.00 0.00 0.00 53 1008.1
20260505212550 54 355 5.2 12.2 0.00 0.00 0.00 52 1008.0
20260505212050 54 340 3.5 11.3 0.00 0.00 0.00 52 1007.8
20260505211553 54 311 1.7 12.2 0.00 0.00 0.00 53 1007.8
20260505211050 54 61 7.0 9.6 0.00 0.00 0.00 53 1007.5
20260505210550 54 355 3.5 8.7 0.00 0.00 0.00 54 1007.5
20260505210050 54 5 1.7 11.3 0.00 0.00 0.00 54 1007.3
20260505205549 54 10 0.0 9.6 0.00 0.00 0.00 54 1007.4
20260505205050 54 150 0.9 9.6 0.00 0.00 0.00 54 1007.5
20260505204050 54 24 5.2 11.3 0.00 0.00 0.00 55 1007.7
20260505203550 54 318 4.3 11.3 0.00 0.00 0.00 55 1007.7
20260505203051 55 15 1.7 11.3 0.00 0.00 0.00 55 1007.7
20260505202550 55 28 7.8 10.4 0.00 0.00 0.00 55 1007.6
20260505202051 55 58 1.7 10.4 0.00 0.00 0.00 55 1007.5
20260505201550 55 342 3.5 12.2 0.00 0.00 0.00 55 1007.2
20260505200550 55 38 1.7 15.6 0.00 0.00 0.00 54 1007.3
20260505200051 55 336 2.6 15.6 0.00 0.00 0.00 54 1007.3
20260505195550 55 5 1.7 10.4 0.00 0.00 0.00 55 1007.3
20260505195050 55 351 10.4 10.4 0.00 0.00 0.00 55 1007.3
20260505194550 55 328 1.7 16.5 0.00 0.00 0.00 55 1007.4
20260505193051 55 62 4.3 12.2 0.00 0.00 0.00 55 1007.3
20260505192549 55 349 1.7 8.7 0.00 0.00 0.00 56 1007.2
20260505192050 55 51 1.7 10.4 0.00 0.00 0.00 56 1007.1
20260505191550 55 344 1.7 12.2 0.00 0.00 0.00 56 1006.8
20260505191049 55 52 6.1 12.2 0.00 0.00 0.00 56 1006.8
20260505190051 56 300 4.3 9.6 0.00 0.00 0.00 56 1006.8
20260505184550 56 58 7.8 13.0 0.00 0.00 0.00 56 1006.7
20260505184050 56 36 3.5 13.0 0.00 0.00 0.00 56 1006.5
20260505183050 56 346 3.5 13.0 0.00 0.00 0.00 57 1006.6
20260505182550 56 24 2.6 13.9 0.00 0.00 0.00 57 1006.6
20260505181550 56 28 1.7 11.3 0.00 0.00 0.00 58 1006.8
20260505181050 56 15 0.9 13.0 0.00 0.00 0.00 58 1006.6
20260505180549 56 38 2.6 13.0 0.00 0.00 0.00 58 1006.7
20260505175550 56 113 1.7 14.8 0.00 0.00 0.00 58 1006.1
20260505175050 56 33 0.9 11.3 0.00 0.00 0.00 58 1005.6
20260505174551 56 93 2.6 10.4 0.00 0.00 0.00 58 1005.7
20260505174049 56 65 1.7 12.2 0.00 0.00 0.00 58 1005.9
20260505172550 56 113 6.1 11.3 0.00 0.00 0.00 58 1005.8
20260505172050 57 323 1.7 13.9 0.00 0.00 0.00 58 1005.8
20260505171551 57 76 2.6 13.9 0.00 0.00 0.00 58 1005.9
20260505171049 57 50 1.7 12.2 0.00 0.00 0.00 58 1005.9
20260505170549 57 355 2.6 13.0 0.00 0.00 0.00 58 1005.5
20260505170050 58 76 0.9 13.9 0.00 0.00 0.00 58 1005.3
20260505165550 58 360 3.5 13.9 0.00 0.00 0.00 58 1005.2
20260505165051 58 334 4.3 13.9 0.00 0.00 0.00 58 1005.3
20260505164551 58 15 1.7 13.9 0.00 0.00 0.00 58 1005.0
20260505164050 59 312 1.7 13.0 0.00 0.00 0.00 58 1005.0
20260505163551 59 82 3.5 13.0 0.00 0.00 0.00 58 1005.0
20260505163050 59 27 0.9 12.2 0.00 0.00 0.00 58 1004.9
20260505162549 60 5 5.2 8.7 0.00 0.00 0.00 58 1004.9
20260505162050 60 25 2.6 8.7 0.00 0.00 0.00 58 1005.0
20260505161049 61 310 6.1 11.3 0.00 0.00 0.00 57 1004.6
20260505160550 61 29 3.5 9.6 0.00 0.00 0.00 57 1004.6
20260505153050 67 22 0.0 8.7 0.00 0.00 0.00 56 1003.7
20260505152049 69 346 3.5 7.8 0.00 0.00 0.00 54 1003.7
20260505150549 70 153 0.0 0.0 0.00 0.00 0.00 54 1003.3
20260505140550 68 150 7.0 7.8 0.00 0.00 0.00 56 1002.7
20260505124049 66 153 0.0 5.2 0.00 0.00 0.00 57 1003.3
20260505123549 66 153 0.0 4.3 0.00 0.00 0.00 57 1003.1
20260505123050 66 179 0.9 7.0 0.00 0.00 0.00 57 1003.1
20260505122551 66 128 0.9 7.0 0.00 0.00 0.00 57 1002.9
20260505122049 66 153 1.7 6.1 0.00 0.00 0.00 57 1002.8
20260505121551 66 165 0.0 3.5 0.00 0.00 0.00 57 1002.8
20260505121049 66 178 0.0 2.6 0.00 0.00 0.00 57 1002.8
20260505120549 66 121 0.0 2.6 0.00 0.00 0.00 57 1002.9
20260505120050 66 120 0.0 7.0 0.00 0.00 0.00 57 1002.8
20260505115549 66 119 0.0 7.0 0.00 0.00 0.00 57 1002.8
20260505115050 66 140 0.0 6.1 0.00 0.00 0.00 57 1002.7
20260505114551 66 89 0.0 2.6 0.00 0.00 0.00 57 1002.7
20260505114049 66 152 1.7 2.6 0.00 0.00 0.00 57 1002.9
20260505113549 66 142 0.0 2.6 0.00 0.00 0.00 57 1002.7
20260505113050 66 142 0.0 2.6 0.00 0.00 0.00 57 1002.8
20260505111551 66 18 0.0 1.7 0.00 0.00 0.00 57 1002.5
20260505111049 66 18 0.0 1.7 0.00 0.00 0.00 57 1002.3
20260505110549 66 19 0.0 3.5 0.00 0.00 0.00 57 1002.2
20260505101550 66 139 1.7 3.5 0.00 0.00 0.00 57 1001.6
20260505101049 66 161 3.5 5.2 0.00 0.00 0.00 57 1001.5
20260505100549 66 157 0.0 5.2 0.00 0.00 0.00 58 1001.5
20260505100050 66 158 0.0 1.7 0.00 0.00 0.00 58 1001.5
20260505095049 66 167 0.0 2.6 0.00 0.00 0.00 58 1001.3
20260505094550 66 150 0.9 4.3 0.00 0.00 0.00 58 1001.4
20260505094050 66 154 0.0 4.3 0.00 0.00 0.00 58 1001.5
20260505093549 66 141 1.7 3.5 0.00 0.00 0.00 58 1001.4
20260505093050 66 140 0.0 3.5 0.00 0.00 0.00 58 1001.5
20260505092550 66 139 0.9 3.5 0.00 0.00 0.00 58 1001.5
20260505091551 66 148 0.0 4.3 0.00 0.00 0.00 58 1001.5
20260505091049 66 169 1.7 3.5 0.00 0.00 0.00 58 1001.5
20260505090549 67 180 1.7 4.3 0.00 0.00 0.00 57 1001.6
20260505090050 67 216 0.0 2.6 0.00 0.00 0.00 57 1001.7
20260505085549 67 168 0.9 1.7 0.00 0.00 0.00 57 1001.8
20260505085049 67 157 0.0 4.3 0.00 0.00 0.00 57 1001.7
20260505084550 67 163 1.7 4.3 0.00 0.00 0.00 56 1001.7
20260505084049 68 162 3.5 3.5 0.00 0.00 0.00 56 1001.6
20260505083550 68 175 2.6 3.5 0.00 0.00 0.00 56 1001.6
20260505083050 68 139 0.0 3.5 0.00 0.00 0.00 56 1001.7
20260505082550 68 162 0.0 5.2 0.00 0.00 0.00 56 1001.9
20260505082051 68 167 0.0 5.2 0.00 0.00 0.00 56 1001.8
20260505081549 68 173 0.9 2.6 0.00 0.00 0.00 56 1001.8
20260505080549 68 190 0.9 1.7 0.00 0.00 0.00 56 1001.8
20260505080050 68 190 0.0 2.6 0.00 0.00 0.00 56 1001.7
20260505075549 68 188 0.0 2.6 0.00 0.00 0.00 55 1001.9
20260505075049 68 126 0.0 1.7 0.00 0.00 0.00 55 1002.0
20260505074549 68 125 0.0 1.7 0.00 0.00 0.00 55 1002.2
20260505074049 68 119 0.0 1.7 0.00 0.00 0.00 55 1002.4
20260505073549 68 119 0.0 2.6 0.00 0.00 0.00 55 1002.3
20260505073049 68 124 0.0 2.6 0.00 0.00 0.00 55 1002.5
20260505072550 68 128 0.0 0.9 0.00 0.00 0.00 55 1002.6
20260505072049 68 127 0.0 0.9 0.00 0.00 0.00 55 1002.5
20260505071049 68 131 0.0 0.9 0.00 0.00 0.00 55 1002.6
20260505070549 68 131 0.0 1.7 0.00 0.00 0.00 55 1002.6
20260505070049 68 131 1.7 1.7 0.00 0.00 0.00 55 1002.6
20260505065550 68 141 0.0 0.0 0.00 0.00 0.00 55 1002.7
20260505065050 68 141 0.0 0.9 0.00 0.00 0.00 56 1002.8
20260505064549 68 141 0.0 0.9 0.00 0.00 0.00 56 1003.1
20260505064049 68 141 0.0 0.0 0.00 0.00 0.00 55 1003.1
20260505063550 68 141 0.0 1.7 0.00 0.00 0.00 55 1002.9
20260505062549 68 165 0.0 2.6 0.00 0.00 0.00 55 1002.9
20260505062049 68 165 0.0 2.6 0.00 0.00 0.00 55 1002.8
20260505061550 68 165 0.0 1.7 0.00 0.00 0.00 55 1002.5
20260505061049 68 165 0.0 4.3 0.00 0.00 0.00 55 1002.2
20260505060550 68 165 0.0 7.8 0.00 0.00 0.00 55 1001.9
20260505055549 68 151 4.3 7.8 0.00 0.00 0.00 54 1001.8
20260505055049 69 159 4.3 7.8 0.00 0.00 0.00 54 1001.8
20260505054549 69 166 4.3 8.7 0.00 0.00 0.00 54 1001.9
20260505054050 69 175 2.6 9.6 0.00 0.00 0.00 54 1001.9
20260505053549 69 167 4.3 7.8 0.00 0.00 0.00 54 1002.0
20260505053050 69 161 5.2 7.8 0.00 0.00 0.00 54 1002.1
20260505052549 69 166 3.5 10.4 0.00 0.00 0.00 54 1002.2
20260505052049 69 171 5.2 7.8 0.00 0.00 0.00 54 1002.2
20260505051550 69 149 2.6 9.6 0.00 0.00 0.00 53 1002.3
20260505051049 69 160 4.3 11.3 0.00 0.00 0.00 53 1002.1
20260505050550 69 162 4.3 11.3 0.00 0.00 0.00 53 1002.2
20260505041550 68 153 6.1 9.6 0.00 0.00 0.00 53 1002.2
20260505041049 68 186 6.1 9.6 0.00 0.00 0.00 53 1002.5
20260505040549 69 157 1.7 12.2 0.00 0.00 0.00 53 1002.6
20260505040049 69 194 3.5 12.2 0.00 0.00 0.00 53 1002.5
20260505035549 69 182 8.7 8.7 0.00 0.00 0.00 52 1002.3
20260505035050 70 169 3.5 13.0 0.00 0.00 0.00 51 1002.5
20260505034549 70 167 12.2 12.2 0.00 0.00 0.00 51 1002.7
20260505034049 70 174 1.7 12.2 0.00 0.00 0.00 50 1002.7
20260505033549 70 173 5.2 12.2 0.00 0.00 0.00 50 1002.6
20260505033053 70 184 3.5 12.2 0.00 0.00 0.00 50 1002.9
20260505032550 70 165 4.3 9.6 0.00 0.00 0.00 50 1002.9
20260505032049 70 142 2.6 7.8 0.00 0.00 0.00 50 1003.1
20260505031549 70 152 2.6 7.8 0.00 0.00 0.00 50 1003.0
20260505030549 71 163 5.2 8.7 0.00 0.00 0.00 49 1003.1
20260505030049 71 153 2.6 7.0 0.00 0.00 0.00 49 1003.4
20260505025549 71 170 1.7 6.1 0.00 0.00 0.00 49 1003.4
20260505025049 71 157 1.7 8.7 0.00 0.00 0.00 49 1003.3
20260505024550 71 144 2.6 8.7 0.00 0.00 0.00 49 1003.3
20260505023549 71 169 0.9 7.0 0.00 0.00 0.00 48 1003.5
20260505023051 72 162 3.5 7.0 0.00 0.00 0.00 48 1003.4
20260505022549 72 180 3.5 8.7 0.00 0.00 0.00 47 1003.4
20260505022049 72 135 4.3 9.6 0.00 0.00 0.00 47 1003.3
20260505021550 72 170 1.7 10.4 0.00 0.00 0.00 47 1003.3
20260505021049 72 161 1.7 11.3 0.00 0.00 0.00 47 1003.2
20260505020549 72 169 3.5 7.8 0.00 0.00 0.00 47 1003.4
20260505020050 73 156 5.2 7.8 0.00 0.00 0.00 47 1003.4
20260505015550 73 165 6.1 9.6 0.00 0.00 0.00 47 1003.3